Weather History for Marietta, GA

Change the Weather History Date:

Sunday, December 1, 2013

  Actual Average Record
Temperature  
Mean Temperature 48 °F -  
Max Temperature 56 °F 56 °F 71 °F (1998)
Min Temperature 39 °F 37 °F 26 °F (1999)
Degree Days  
Heating Degree Days 18    
Moisture  
Dew Point 32 °F    
Average Humidity 60    
Maximum Humidity 86    
Minimum Humidity 48    
Precipitation  
Precipitation 0.00 in - - ()
Sea Level Pressure  
Sea Level Pressure 30.21 in    
Wind  
Wind Speed 3 mph (NE)    
Max Wind Speed 7 mph    
Max Gust Speed -    
Visibility 10 miles    
Events      
Averages and records for this station are not official NWS values.
T = Trace of Precipitation, MM = Missing Value Source: NWS Daily Summary

Daily Weather History Graph

Daily Weather History Graph

Search for Another Location

Airport:

Trip Planner

Search our weather history database for the weather conditions in past years. The results will help you decide how hot, cold, wet, or windy it might be!

Date:

Astronomy

Dec. 01, 2013 Rise Set
Actual Time 7:25 AM EST 5:29 PM EST
Civil Twilight 6:57 AM EST 5:56 PM EST
Nautical Twilight 6:27 AM EST 6:27 PM EST
Astronomical Twilight 5:56 AM EST 6:57 PM EST
Moon 5:46 AM EST (12/1) 4:35 PM EST (12/1)
Length of Visible Light 10h 58m
Length of Day
10h 03m
Waning Crescent, 2% of the Moon is Illuminated
Dec 1
Waning Crescent
Dec 2
New
Dec 9
First Quarter
Dec 17
Full
Dec 25
Last Quarter

Hourly Weather History & Observations

Time (EST) Temp. Windchill Dew Point Humidity Pressure Visibility Wind Dir Wind Speed Gust Speed Precip Events Conditions
12:58 AM 39.9 °F - 26.6 °F 59% 30.34 in 10.0 mi Calm Calm - N/A   Partly Cloudy
1:48 AM 41.0 °F 39.0 °F 26.6 °F 57% 30.31 in 10.0 mi NE 3.5 mph - N/A   Mostly Cloudy
1:58 AM 40.6 °F 38.6 °F 27.3 °F 59% 30.32 in 10.0 mi NE 3.5 mph - N/A   Mostly Cloudy
2:58 AM 41.4 °F 39.4 °F 27.3 °F 57% 30.32 in 10.0 mi NNE 3.5 mph - N/A   Overcast
3:58 AM 41.9 °F 40.0 °F 27.3 °F 56% 30.30 in 10.0 mi East 3.5 mph - N/A   Overcast
4:43 AM 42.8 °F 41.1 °F 26.6 °F 53% 30.27 in 10.0 mi ENE 3.5 mph - N/A   Overcast
4:58 AM 42.8 °F - 26.8 °F 53% 30.30 in 10.0 mi East 2.3 mph - N/A   Overcast
5:58 AM 42.6 °F 39.9 °F 27.1 °F 54% 30.29 in 10.0 mi East 4.6 mph - N/A   Overcast
6:43 AM 42.8 °F 41.1 °F 28.4 °F 57% 30.26 in 10.0 mi East 3.5 mph - N/A   Overcast
6:47 AM 42.8 °F 40.1 °F 28.4 °F 57% 30.26 in 10.0 mi East 4.6 mph - N/A   Overcast
6:58 AM 41.9 °F 39.0 °F 27.1 °F 56% 30.28 in 10.0 mi East 4.6 mph - N/A   Overcast
7:17 AM 41.0 °F - 26.6 °F 57% 30.26 in 10.0 mi East 2.3 mph - N/A   Overcast
7:48 AM 41.0 °F - 26.6 °F 57% 30.27 in 10.0 mi Calm Calm - N/A   Overcast
7:58 AM 40.5 °F - 27.9 °F 61% 30.29 in 10.0 mi East 1.2 mph - N/A   Overcast
8:43 AM 42.8 °F - 28.4 °F 57% 30.27 in 10.0 mi East 2.3 mph - N/A   Overcast
8:58 AM 43.5 °F - 28.2 °F 55% 30.29 in 10.0 mi Variable 2.3 mph - N/A   Overcast
9:58 AM 45.3 °F - 28.2 °F 51% 30.29 in 10.0 mi Variable 2.3 mph - N/A   Overcast
10:58 AM 48.4 °F - 30.7 °F 51% 30.27 in 10.0 mi Variable 2.3 mph - N/A   Overcast
11:58 AM 52.5 °F - 36.3 °F 54% 30.23 in 10.0 mi WSW 4.6 mph - N/A   Overcast
12:58 PM 54.9 °F - 38.7 °F 54% 30.19 in 10.0 mi WSW 5.8 mph - N/A   Overcast
1:58 PM 56.3 °F - 38.5 °F 51% 30.15 in 10.0 mi WNW 6.9 mph - N/A   Overcast
2:58 PM 56.7 °F - 36.9 °F 48% 30.12 in 10.0 mi WNW 3.5 mph - N/A   Overcast
3:58 PM 55.8 °F - 36.7 °F 49% 30.11 in 10.0 mi WNW 5.8 mph - N/A   Overcast
4:58 PM 53.4 °F - 37.4 °F 55% 30.10 in 10.0 mi NNW 5.8 mph - N/A   Overcast
5:58 PM 51.6 °F - 37.9 °F 60% 30.09 in 10.0 mi Calm Calm - N/A   Overcast
6:58 PM 47.1 °F - 39.2 °F 74% 30.09 in 10.0 mi Calm Calm - N/A   Overcast
7:58 PM 44.4 °F - 38.1 °F 79% 30.08 in 10.0 mi West 2.3 mph - N/A   Overcast
8:58 PM 43.9 °F - 38.3 °F 81% 30.08 in 10.0 mi Calm Calm - N/A   Overcast
9:58 PM 43.9 °F - 38.3 °F 81% 30.06 in 10.0 mi West 2.3 mph - N/A   Overcast
10:58 PM 43.5 °F - 38.8 °F 84% 30.05 in 10.0 mi Calm Calm - N/A   Overcast
11:58 PM 43.5 °F - 39.6 °F 86% 30.04 in 10.0 mi Calm Calm - N/A   Mostly Cloudy